Location: Risskov
(56.1972°N, 10.2480°E)
Time: 23:46:32
(UTC+00:00)

ATLAS 5 CENTAUR R/B - Pass Details

Date: 05 July 2020
Orbit: 534 x 1124 km, 63.4° (Epoch: 09 August)

Event Time Altitude Azimuth Distance (km) Brightness Sun altitude
Rises 22:51:44 0° 261° (W) 2,834 4.9 -10.8°
Reaches altitude 10° 22:53:55 10° 268° (W) 1,996 4.2 -10.9°
Maximum altitude 22:58:15 45° 342° (NNW) 934 3.0 -11.0°
Drops below altitude 10° 23:03:20 10° 55° (NE) 2,331 4.9 -11.0°
Sets 23:06:04 0° 62° (ENE) 3,369 5.7 -11.0°
